COSMOS 510

Satellite information

Favourite Embed

Satellite Type and Status

PAYLOADIN ORBIT

Key statistics

Satellite COSMOS 510 at a glance.

Uptime

19511

Days in orbit

Revolutions

≈ 12.4

Per day

Orbit

LEO

Low Earth Orbit

Inclination

74.0

Latest

Satellite identification and parameters

Extended collection of information and parameters for COSMOS 510.

Object identification

Identified? True

Debris? False

Object name: COSMOS 510

International designator: 1972-057G

Object number (NORAD): 6123

Object ID (CCSDS): 6123

Country: COMMONWEALTH OF INDEPENDENT STATES (CIS)

Current information (Y/N): Y

RCS size: MEDIUM

Orbital parameters

Period: 116.029 minutes

Inclination: 74.0287 deg

SMA: 7880.2 km

Apoapsis: 1509.624 km

Periapsis: 1494.507 km

RAAN: 285.9036 deg

Eccentricy: 0.0009592

Argument of periapsis: 223.301 deg

Mean anomaly: 205.3614 deg

Mean motion: 12.41071734 rev/day

Mean motion (dot): -0.0000002 rev/day2

B* drag term: -0.000035966042 1/REarth

Two-line elements (TLE)

Creation date: Dec. 20, 2025, 3:40 a.m.

Reference frame: TEME

Reference center: EARTH

Epoch: Dec. 19, 2025, 10:19 p.m. UTC

TLE line 0: 0 COSMOS 510

TLE line 1: 1 06123U 72057G 25353.93046377 -.00000020 00000-0 -35966-4 0 9997

TLE line 2: 2 06123 74.0287 285.9036 0009592 223.3010 205.3614 12.41071734420075

Live tracking on map

Real-time ground track for satellite COSMOS 510.

In-orbit conjunctions

There are no conjunctions computed for COSMOS 510, at the moment. Check back to stay up to date, as we update our databases every day.

Go to all conjunctions

Associated space launch

Military communications satellites

COSMOS 510 was lifted into orbit during the mission ‘Kosmos-3M | Strela-1M 25-32’, on board a Kosmos-3M space rocket.

The launch took place on July 20, 1972, 6:10 p.m. from 132/2.

For more information about the launch, click the button.

Launch to space Kosmos-3M | Strela-1M 25-32
Kosmos-3M | Strela-1M 25-32

Agency: N/A

Status: Launch Successful

Launch date: July 20, 1972, 6:10 p.m. UTC

Rocket: Kosmos-3M

Launch pad: 132/2

Location: Plesetsk Cosmodrome, Russian Federation

...

Latest news about this satellite

There are no fresh news available about this satellite. Check back as we update our databases every day.


Newsletter sign-up

Weekly statistics, charts and insights to help you stay on top of the space industry.